| time (UTC) | temp C | wind direction | speed KPH | gust KPH | rain 1hr cm | rain 24hr cm | rain mn cm | humidity % | barometer mb |
| 20260507113224 | 12 | 22 | 1.6 | 8.0 | 0.00 | 0.00 | 0.00 | 75 | 1015.1 |
| 20260507112205 | 12 | 341 | 0.0 | 6.4 | 0.00 | 0.00 | 0.00 | 73 | 1015.2 |
| 20260507111704 | 12 | 333 | 1.6 | 6.4 | 0.00 | 0.00 | 0.00 | 72 | 1015.2 |
| 20260507111204 | 13 | 30 | 0.0 | 3.2 | 0.00 | 0.00 | 0.00 | 73 | 1015.1 |
| 20260507110704 | 13 | 52 | 0.0 | 4.8 | 0.00 | 0.00 | 0.00 | 75 | 1015.1 |
| 20260507105704 | 12 | 61 | 0.0 | 6.4 | 0.00 | 0.00 | 0.00 | 75 | 1015.2 |
| 20260507105204 | 12 | 5 | 0.0 | 6.4 | 0.00 | 0.00 | 0.00 | 75 | 1015.2 |
| 20260507104704 | 12 | 17 | 0.0 | 6.4 | 0.00 | 0.00 | 0.00 | 74 | 1015.1 |
| 20260507104204 | 12 | 9 | 1.6 | 6.4 | 0.00 | 0.00 | 0.00 | 74 | 1015.1 |
| 20260507103704 | 12 | 17 | 0.0 | 4.8 | 0.00 | 0.00 | 0.00 | 75 | 1015.2 |
| 20260507102704 | 12 | 11 | 0.0 | 8.0 | 0.00 | 0.00 | 0.00 | 76 | 1015.1 |
| 20260507102204 | 12 | 17 | 1.6 | 8.0 | 0.00 | 0.00 | 0.00 | 76 | 1015.1 |
| 20260507101704 | 12 | 19 | 1.6 | 8.0 | 0.00 | 0.00 | 0.00 | 76 | 1015.1 |
| 20260507101204 | 12 | 28 | 3.2 | 6.4 | 0.00 | 0.00 | 0.00 | 76 | 1015.1 |
| 20260507100704 | 12 | 0 | 1.6 | 3.2 | 0.00 | 0.00 | 0.00 | 76 | 1015.1 |
| 20260507100204 | 12 | 5 | 0.0 | 4.8 | 0.00 | 0.00 | 0.00 | 77 | 1015.0 |
| 20260507095704 | 11 | 54 | 0.0 | 6.4 | 0.00 | 0.00 | 0.00 | 79 | 1014.8 |
| 20260507095204 | 11 | 348 | 0.0 | 6.4 | 0.00 | 0.00 | 0.00 | 77 | 1014.8 |
| 20260507094704 | 11 | 348 | 1.6 | 6.4 | 0.00 | 0.00 | 0.00 | 78 | 1014.8 |
| 20260507094204 | 11 | 24 | 1.6 | 6.4 | 0.00 | 0.00 | 0.00 | 77 | 1014.8 |
| 20260507093704 | 11 | 9 | 1.6 | 6.4 | 0.00 | 0.00 | 0.00 | 78 | 1014.7 |
| 20260507093204 | 11 | 277 | 0.0 | 6.4 | 0.00 | 0.00 | 0.00 | 77 | 1014.7 |
| 20260507092704 | 11 | 278 | 1.6 | 4.8 | 0.00 | 0.00 | 0.00 | 76 | 1014.7 |
| 20260507092204 | 11 | 324 | 0.0 | 4.8 | 0.00 | 0.00 | 0.00 | 78 | 1014.7 |
| 20260507091704 | 11 | 26 | 0.0 | 6.4 | 0.00 | 0.00 | 0.00 | 79 | 1014.7 |
| 20260507091205 | 11 | 22 | 1.6 | 6.4 | 0.00 | 0.00 | 0.00 | 78 | 1014.7 |
| 20260507090705 | 11 | 355 | 1.6 | 6.4 | 0.00 | 0.00 | 0.00 | 78 | 1014.6 |
| 20260507090204 | 11 | 19 | 0.0 | 4.8 | 0.00 | 0.00 | 0.00 | 79 | 1014.6 |
| 20260507085705 | 11 | 355 | 0.0 | 8.0 | 0.00 | 0.00 | 0.00 | 79 | 1014.5 |
| 20260507084704 | 11 | 327 | 1.6 | 8.0 | 0.00 | 0.00 | 0.00 | 79 | 1014.5 |
| 20260507084204 | 11 | 317 | 1.6 | 6.4 | 0.00 | 0.00 | 0.00 | 80 | 1014.4 |
| 20260507083704 | 11 | 236 | 1.6 | 11.3 | 0.00 | 0.00 | 0.00 | 80 | 1014.4 |
| 20260507083204 | 11 | 301 | 3.2 | 11.3 | 0.00 | 0.00 | 0.00 | 80 | 1014.3 |
| 20260507082704 | 11 | 279 | 1.6 | 11.3 | 0.00 | 0.00 | 0.00 | 80 | 1014.4 |
| 20260507081704 | 11 | 311 | 3.2 | 6.4 | 0.00 | 0.00 | 0.00 | 80 | 1014.3 |
| 20260507081225 | 11 | 0 | 1.6 | 8.0 | 0.00 | 0.00 | 0.00 | 80 | 1014.3 |
| 20260507080705 | 11 | 313 | 1.6 | 9.7 | 0.00 | 0.00 | 0.00 | 80 | 1014.2 |
| 20260507080204 | 11 | 5 | 3.2 | 11.3 | 0.00 | 0.00 | 0.00 | 80 | 1014.1 |
| 20260507075204 | 11 | 262 | 1.6 | 16.1 | 0.00 | 0.00 | 0.00 | 81 | 1014.2 |
| 20260507074704 | 11 | 30 | 1.6 | 16.1 | 0.00 | 0.00 | 0.00 | 82 | 1014.0 |
| 20260507074204 | 10 | 5 | 3.2 | 9.7 | 0.00 | 0.00 | 0.00 | 83 | 1013.9 |
| 20260507073204 | 10 | 281 | 3.2 | 8.0 | 0.00 | 0.00 | 0.00 | 84 | 1013.9 |
| 20260507072704 | 10 | 294 | 3.2 | 8.0 | 0.00 | 0.03 | 0.00 | 84 | 1013.9 |
| 20260507072205 | 10 | 239 | 3.2 | 8.0 | 0.00 | 0.03 | 0.00 | 84 | 1013.8 |
| 20260507071704 | 10 | 302 | 3.2 | 6.4 | 0.00 | 0.03 | 0.00 | 85 | 1013.9 |
| 20260507071204 | 10 | 330 | 1.6 | 6.4 | 0.00 | 0.03 | 0.00 | 85 | 1013.8 |
| 20260507070705 | 10 | 5 | 1.6 | 6.4 | 0.00 | 0.03 | 0.00 | 87 | 1013.9 |
| 20260507070220 | 10 | 296 | 1.6 | 6.4 | 0.00 | 0.03 | 0.00 | 87 | 1013.8 |
| 20260507065705 | 10 | 263 | 1.6 | 6.4 | 0.00 | 0.03 | 0.00 | 87 | 1013.7 |
| 20260507065204 | 10 | 272 | 1.6 | 4.8 | 0.00 | 0.03 | 0.00 | 88 | 1013.6 |
| 20260507064204 | 10 | 288 | 1.6 | 6.4 | 0.00 | 0.03 | 0.00 | 89 | 1013.7 |
| 20260507063704 | 9 | 294 | 1.6 | 6.4 | 0.00 | 0.05 | 0.00 | 90 | 1013.6 |
| 20260507063204 | 9 | 265 | 0.0 | 4.8 | 0.00 | 0.05 | 0.00 | 90 | 1013.6 |
| 20260507062204 | 9 | 266 | 0.0 | 3.2 | 0.00 | 0.05 | 0.00 | 91 | 1013.6 |
| 20260507061718 | 8 | 266 | 0.0 | 1.6 | 0.00 | 0.05 | 0.00 | 92 | 1013.6 |
| 20260507061231 | 8 | 267 | 0.0 | 3.2 | 0.00 | 0.08 | 0.00 | 92 | 1013.5 |
| 20260507060704 | 8 | 267 | 0.0 | 3.2 | 0.00 | 0.08 | 0.00 | 92 | 1013.4 |
| 20260507060204 | 8 | 267 | 0.0 | 4.8 | 0.00 | 0.10 | 0.00 | 92 | 1013.4 |
| 20260507055704 | 8 | 267 | 0.0 | 4.8 | 0.00 | 0.13 | 0.00 | 92 | 1013.3 |
| 20260507055204 | 8 | 267 | 0.0 | 1.6 | 0.00 | 0.15 | 0.00 | 92 | 1013.3 |
| 20260507054704 | 8 | 267 | 0.0 | 1.6 | 0.00 | 0.15 | 0.00 | 92 | 1013.3 |
| 20260507054204 | 8 | 267 | 0.0 | 4.8 | 0.00 | 0.15 | 0.00 | 92 | 1013.2 |
| 20260507053704 | 8 | 267 | 0.0 | 4.8 | 0.00 | 0.15 | 0.00 | 92 | 1013.1 |
| 20260507053204 | 8 | 267 | 0.0 | 4.8 | 0.00 | 0.15 | 0.00 | 92 | 1013.1 |
| 20260507052704 | 8 | 267 | 0.0 | 3.2 | 0.00 | 0.15 | 0.00 | 92 | 1013.1 |
| 20260507052205 | 8 | 267 | 0.0 | 4.8 | 0.00 | 0.15 | 0.00 | 92 | 1013.0 |
| 20260507051705 | 8 | 267 | 0.0 | 4.8 | 0.00 | 0.15 | 0.00 | 92 | 1012.9 |
| 20260507051204 | 8 | 267 | 0.0 | 4.8 | 0.00 | 0.15 | 0.00 | 91 | 1012.8 |
| 20260507050704 | 8 | 253 | 0.0 | 3.2 | 0.00 | 0.15 | 0.00 | 91 | 1012.7 |
| 20260507050205 | 8 | 246 | 0.0 | 1.6 | 0.00 | 0.15 | 0.00 | 92 | 1012.6 |
| 20260507045704 | 8 | 246 | 0.0 | 4.8 | 0.00 | 0.15 | 0.00 | 92 | 1012.5 |
| 20260507045204 | 8 | 247 | 0.0 | 4.8 | 0.00 | 0.15 | 0.00 | 92 | 1012.5 |
| 20260507044705 | 8 | 245 | 0.0 | 4.8 | 0.00 | 0.15 | 0.00 | 92 | 1012.4 |
| 20260507043704 | 8 | 245 | 0.0 | 3.2 | 0.00 | 0.15 | 0.00 | 92 | 1012.4 |
| 20260507043205 | 8 | 246 | 0.0 | 4.8 | 0.00 | 0.15 | 0.00 | 92 | 1012.2 |
| 20260507042205 | 7 | 246 | 0.0 | 4.8 | 0.00 | 0.15 | 0.00 | 92 | 1012.1 |
| 20260507041705 | 8 | 244 | 0.0 | 1.6 | 0.00 | 0.18 | 0.00 | 92 | 1012.1 |
| 20260507041205 | 7 | 244 | 0.0 | 1.6 | 0.00 | 0.18 | 0.00 | 92 | 1012.1 |
| 20260507040704 | 7 | 244 | 0.0 | 0.0 | 0.00 | 0.23 | 0.00 | 92 | 1012.0 |
| 20260507040219 | 7 | 244 | 0.0 | 1.6 | 0.00 | 0.23 | 0.00 | 92 | 1012.0 |
| 20260507034705 | 7 | 244 | 0.0 | 1.6 | 0.00 | 0.23 | 0.00 | 92 | 1011.9 |
| 20260507033704 | 7 | 244 | 0.0 | 1.6 | 0.00 | 0.23 | 0.00 | 92 | 1011.9 |
| 20260507033204 | 7 | 244 | 0.0 | 0.0 | 0.00 | 0.23 | 0.00 | 92 | 1012.0 |
| 20260507032704 | 7 | 244 | 0.0 | 0.0 | 0.00 | 0.23 | 0.00 | 92 | 1011.9 |
| 20260507032204 | 7 | 244 | 0.0 | 0.0 | 0.00 | 0.23 | 0.00 | 91 | 1011.9 |
| 20260507031704 | 7 | 244 | 0.0 | 0.0 | 0.00 | 0.23 | 0.00 | 91 | 1011.8 |
| 20260507031204 | 7 | 244 | 0.0 | 1.6 | 0.00 | 0.23 | 0.00 | 91 | 1011.8 |
| 20260507025704 | 7 | 244 | 0.0 | 1.6 | 0.00 | 0.23 | 0.00 | 91 | 1011.7 |
| 20260507025204 | 7 | 244 | 0.0 | 1.6 | 0.00 | 0.23 | 0.00 | 90 | 1011.7 |
| 20260507024704 | 7 | 244 | 0.0 | 0.0 | 0.00 | 0.23 | 0.00 | 90 | 1011.7 |
| 20260507024204 | 7 | 244 | 0.0 | 0.0 | 0.00 | 0.23 | 0.00 | 90 | 1011.7 |
| 20260507023704 | 7 | 244 | 0.0 | 0.0 | 0.00 | 0.23 | 0.00 | 90 | 1011.6 |
| 20260507022704 | 7 | 244 | 0.0 | 1.6 | 0.00 | 0.23 | 0.00 | 90 | 1011.6 |
| 20260507022204 | 7 | 244 | 0.0 | 1.6 | 0.00 | 0.23 | 0.00 | 90 | 1011.6 |
| 20260507021704 | 7 | 244 | 0.0 | 1.6 | 0.00 | 0.23 | 0.00 | 90 | 1011.5 |
| 20260507021205 | 7 | 244 | 0.0 | 1.6 | 0.00 | 0.23 | 0.00 | 90 | 1011.6 |
| 20260507020725 | 7 | 244 | 0.0 | 1.6 | 0.00 | 0.23 | 0.00 | 90 | 1011.6 |
| 20260507020204 | 8 | 244 | 0.0 | 1.6 | 0.00 | 0.23 | 0.00 | 90 | 1011.5 |
| 20260507015204 | 8 | 244 | 0.0 | 0.0 | 0.00 | 0.23 | 0.00 | 90 | 1011.6 |
| 20260507014728 | 8 | 244 | 0.0 | 1.6 | 0.00 | 0.23 | 0.00 | 90 | 1011.5 |
| 20260507014225 | 8 | 244 | 0.0 | 1.6 | 0.00 | 0.23 | 0.00 | 90 | 1011.5 |
| 20260507013704 | 8 | 244 | 0.0 | 1.6 | 0.00 | 0.23 | 0.00 | 90 | 1011.5 |
| 20260507013204 | 8 | 244 | 0.0 | 1.6 | 0.00 | 0.23 | 0.00 | 89 | 1011.5 |
| 20260507012704 | 8 | 244 | 0.0 | 1.6 | 0.00 | 0.23 | 0.00 | 89 | 1011.5 |
| 20260507012204 | 8 | 244 | 0.0 | 0.0 | 0.00 | 0.23 | 0.00 | 89 | 1011.5 |
| 20260507011704 | 8 | 244 | 0.0 | 0.0 | 0.00 | 0.23 | 0.00 | 89 | 1011.4 |
| 20260507011204 | 8 | 244 | 0.0 | 0.0 | 0.00 | 0.23 | 0.00 | 89 | 1011.4 |
| 20260507010704 | 8 | 244 | 0.0 | 0.0 | 0.00 | 0.23 | 0.00 | 88 | 1011.4 |
| 20260507005704 | 8 | 244 | 0.0 | 3.2 | 0.00 | 0.23 | 0.00 | 88 | 1011.4 |
| 20260507005204 | 8 | 244 | 0.0 | 3.2 | 0.00 | 0.23 | 0.00 | 88 | 1011.4 |
| 20260507004704 | 8 | 244 | 0.0 | 3.2 | 0.00 | 0.23 | 0.00 | 88 | 1011.3 |
| 20260507004204 | 8 | 244 | 0.0 | 3.2 | 0.00 | 0.23 | 0.00 | 88 | 1011.3 |
| 20260507003704 | 8 | 244 | 0.0 | 0.0 | 0.00 | 0.23 | 0.00 | 87 | 1011.3 |
| 20260507002704 | 8 | 244 | 0.0 | 0.0 | 0.00 | 0.23 | 0.00 | 87 | 1011.2 |
| 20260507002204 | 8 | 244 | 0.0 | 3.2 | 0.00 | 0.23 | 0.00 | 87 | 1011.2 |
| 20260507001704 | 8 | 244 | 0.0 | 3.2 | 0.00 | 0.23 | 0.00 | 87 | 1011.2 |
| 20260507001205 | 8 | 244 | 0.0 | 3.2 | 0.00 | 0.23 | 0.00 | 87 | 1011.2 |
| 20260507000205 | 8 | 244 | 0.0 | 3.2 | 0.00 | 0.23 | 0.00 | 87 | 1011.2 |
| 20260506235704 | 8 | 244 | 0.0 | 4.8 | 0.00 | 0.23 | 0.00 | 86 | 1011.2 |
| 20260506235204 | 8 | 244 | 0.0 | 4.8 | 0.00 | 0.23 | 0.00 | 87 | 1011.2 |
| 20260506234723 | 8 | 244 | 0.0 | 4.8 | 0.00 | 0.23 | 0.00 | 86 | 1011.1 |
| 20260506234204 | 9 | 244 | 0.0 | 3.2 | 0.00 | 0.23 | 0.00 | 86 | 1011.2 |
| 20260506233704 | 9 | 245 | 0.0 | 6.4 | 0.00 | 0.23 | 0.00 | 86 | 1011.2 |
| 20260506233204 | 9 | 245 | 0.0 | 6.4 | 0.00 | 0.23 | 0.00 | 86 | 1011.2 |
| 20260506232705 | 9 | 245 | 1.6 | 6.4 | 0.00 | 0.23 | 0.00 | 86 | 1011.2 |
| 20260506232205 | 9 | 245 | 1.6 | 6.4 | 0.00 | 0.23 | 0.00 | 86 | 1011.1 |
| 20260506231704 | 9 | 246 | 3.2 | 6.4 | 0.00 | 0.23 | 0.00 | 86 | 1011.1 |
| 20260506231204 | 9 | 242 | 1.6 | 6.4 | 0.00 | 0.23 | 0.00 | 86 | 1011.0 |
| 20260506230704 | 9 | 237 | 1.6 | 4.8 | 0.00 | 0.23 | 0.00 | 87 | 1011.1 |
| 20260506230232 | 9 | 238 | 1.6 | 4.8 | 0.00 | 0.23 | 0.00 | 87 | 1011.0 |
| 20260506225704 | 9 | 237 | 0.0 | 3.2 | 0.00 | 0.23 | 0.00 | 87 | 1011.0 |
| 20260506225204 | 9 | 309 | 0.0 | 3.2 | 0.00 | 0.23 | 0.00 | 87 | 1011.0 |
| 20260506224704 | 10 | 309 | 0.0 | 4.8 | 0.00 | 0.23 | 0.00 | 87 | 1010.9 |
| 20260506224204 | 10 | 311 | 0.0 | 6.4 | 0.00 | 0.23 | 0.00 | 87 | 1010.9 |
| 20260506223704 | 10 | 312 | 0.0 | 6.4 | 0.00 | 0.23 | 0.00 | 87 | 1010.8 |
| 20260506223204 | 10 | 315 | 0.0 | 3.2 | 0.00 | 0.23 | 0.00 | 86 | 1010.8 |
| 20260506221705 | 10 | 274 | 0.0 | 1.6 | 0.00 | 0.23 | 0.00 | 86 | 1010.7 |
| 20260506221204 | 10 | 274 | 0.0 | 6.4 | 0.00 | 0.23 | 0.00 | 87 | 1010.6 |
| 20260506220705 | 10 | 275 | 0.0 | 6.4 | 0.00 | 0.23 | 0.00 | 86 | 1010.4 |
| 20260506220204 | 10 | 275 | 1.6 | 6.4 | 0.00 | 0.23 | 0.23 | 86 | 1010.3 |
| 20260506215704 | 10 | 226 | 1.6 | 6.4 | 0.00 | 0.23 | 0.23 | 86 | 1010.3 |
| 20260506215204 | 10 | 232 | 0.0 | 4.8 | 0.00 | 0.23 | 0.23 | 86 | 1010.3 |
| 20260506214704 | 10 | 244 | 0.0 | 4.8 | 0.00 | 0.23 | 0.23 | 86 | 1010.3 |
| 20260506214205 | 10 | 244 | 1.6 | 4.8 | 0.00 | 0.23 | 0.23 | 86 | 1010.3 |
| 20260506213705 | 10 | 246 | 1.6 | 4.8 | 0.00 | 0.25 | 0.23 | 86 | 1010.2 |
| 20260506213204 | 10 | 246 | 1.6 | 6.4 | 0.00 | 0.25 | 0.23 | 86 | 1010.2 |
| 20260506212704 | 10 | 246 | 0.0 | 6.4 | 0.00 | 0.25 | 0.23 | 86 | 1010.2 |
| 20260506211704 | 10 | 238 | 1.6 | 4.8 | 0.00 | 0.25 | 0.23 | 85 | 1010.1 |
| 20260506211204 | 10 | 262 | 1.6 | 6.4 | 0.00 | 0.25 | 0.23 | 85 | 1010.1 |
| 20260506210704 | 10 | 260 | 1.6 | 6.4 | 0.00 | 0.25 | 0.23 | 84 | 1010.1 |
| 20260506210204 | 10 | 261 | 1.6 | 6.4 | 0.00 | 0.25 | 0.23 | 84 | 1010.1 |
| 20260506204704 | 10 | 278 | 1.6 | 8.0 | 0.00 | 0.25 | 0.23 | 84 | 1009.9 |
| 20260506203705 | 10 | 234 | 1.6 | 4.8 | 0.00 | 0.25 | 0.23 | 83 | 1009.9 |
| 20260506202706 | 10 | 254 | 1.6 | 4.8 | 0.00 | 0.25 | 0.23 | 83 | 1009.7 |
| 20260506202204 | 10 | 254 | 1.6 | 4.8 | 0.00 | 0.25 | 0.23 | 83 | 1009.7 |
| 20260506201704 | 10 | 266 | 1.6 | 4.8 | 0.00 | 0.25 | 0.23 | 82 | 1009.8 |
| 20260506201205 | 10 | 266 | 0.0 | 3.2 | 0.00 | 0.25 | 0.23 | 82 | 1009.8 |
| 20260506200704 | 11 | 267 | 0.0 | 4.8 | 0.00 | 0.25 | 0.23 | 82 | 1009.7 |
| 20260506200204 | 11 | 267 | 0.0 | 4.8 | 0.00 | 0.25 | 0.23 | 82 | 1009.6 |
| 20260506195704 | 11 | 267 | 0.0 | 1.6 | 0.00 | 0.28 | 0.23 | 82 | 1009.5 |
| 20260506195205 | 11 | 267 | 0.0 | 6.4 | 0.00 | 0.30 | 0.23 | 82 | 1009.4 |
| 20260506194705 | 11 | 267 | 0.0 | 6.4 | 0.00 | 0.33 | 0.23 | 82 | 1009.4 |
| 20260506194205 | 11 | 267 | 0.0 | 6.4 | 0.00 | 0.38 | 0.23 | 81 | 1009.4 |
| 20260506193705 | 11 | 267 | 0.0 | 6.4 | 0.00 | 0.41 | 0.23 | 81 | 1009.2 |
| 20260506193205 | 11 | 250 | 0.0 | 8.0 | 0.00 | 0.46 | 0.23 | 82 | 1009.2 |
| 20260506192205 | 11 | 250 | 1.6 | 8.0 | 0.00 | 0.71 | 0.23 | 81 | 1009.0 |
| 20260506191705 | 11 | 248 | 1.6 | 6.4 | 0.00 | 0.76 | 0.23 | 80 | 1009.0 |
| 20260506191205 | 11 | 246 | 1.6 | 6.4 | 0.00 | 0.79 | 0.23 | 80 | 1008.9 |
| 20260506185704 | 11 | 269 | 1.6 | 11.3 | 0.00 | 0.89 | 0.23 | 80 | 1008.7 |
| 20260506185205 | 11 | 269 | 1.6 | 11.3 | 0.00 | 0.94 | 0.23 | 80 | 1008.6 |
| 20260506184705 | 11 | 268 | 1.6 | 9.7 | 0.00 | 0.99 | 0.23 | 80 | 1008.6 |
| 20260506183704 | 11 | 259 | 1.6 | 6.4 | 0.00 | 1.07 | 0.23 | 80 | 1008.6 |
| 20260506183204 | 11 | 260 | 1.6 | 6.4 | 0.00 | 1.09 | 0.23 | 80 | 1008.6 |
| 20260506182204 | 11 | 286 | 0.0 | 4.8 | 0.00 | 1.12 | 0.23 | 81 | 1008.5 |
| 20260506181204 | 11 | 279 | 0.0 | 9.7 | 0.00 | 1.17 | 0.23 | 81 | 1008.4 |
| 20260506180704 | 11 | 289 | 1.6 | 9.7 | 0.00 | 1.17 | 0.23 | 81 | 1008.3 |
| 20260506180205 | 11 | 276 | 1.6 | 9.7 | 0.00 | 1.19 | 0.23 | 81 | 1008.3 |
| 20260506175704 | 11 | 302 | 1.6 | 11.3 | 0.00 | 1.22 | 0.23 | 82 | 1008.3 |
| 20260506175204 | 11 | 281 | 3.2 | 11.3 | 0.00 | 1.24 | 0.23 | 82 | 1008.2 |
| 20260506174704 | 11 | 234 | 3.2 | 11.3 | 0.00 | 1.24 | 0.23 | 81 | 1008.1 |
| 20260506173704 | 12 | 28 | 1.6 | 9.7 | 0.00 | 1.27 | 0.23 | 82 | 1008.0 |
| 20260506173205 | 12 | 298 | 1.6 | 9.7 | 0.00 | 1.27 | 0.23 | 82 | 1007.9 |
| 20260506172704 | 12 | 290 | 1.6 | 9.7 | 0.00 | 1.27 | 0.23 | 81 | 1007.7 |
| 20260506172204 | 12 | 281 | 1.6 | 11.3 | 0.00 | 1.30 | 0.23 | 81 | 1007.8 |
| 20260506171704 | 12 | 300 | 1.6 | 11.3 | 0.00 | 1.30 | 0.23 | 81 | 1007.7 |
| 20260506170704 | 12 | 349 | 3.2 | 9.7 | 0.00 | 1.30 | 0.23 | 81 | 1007.8 |
| 20260506170204 | 12 | 270 | 3.2 | 9.7 | 0.00 | 1.30 | 0.23 | 81 | 1007.8 |
| 20260506165705 | 12 | 280 | 3.2 | 14.5 | 0.00 | 1.30 | 0.23 | 80 | 1007.8 |
| 20260506165204 | 12 | 24 | 3.2 | 14.5 | 0.00 | 1.30 | 0.23 | 81 | 1007.8 |
| 20260506164704 | 12 | 269 | 3.2 | 14.5 | 0.00 | 1.30 | 0.23 | 81 | 1007.8 |
| 20260506164204 | 12 | 31 | 1.6 | 6.4 | 0.00 | 1.30 | 0.23 | 81 | 1007.7 |
| 20260506163704 | 12 | 322 | 1.6 | 9.7 | 0.00 | 1.30 | 0.23 | 81 | 1007.7 |
| 20260506162704 | 12 | 5 | 1.6 | 11.3 | 0.00 | 1.30 | 0.23 | 81 | 1007.7 |
| 20260506162233 | 12 | 289 | 3.2 | 11.3 | 0.00 | 1.30 | 0.23 | 80 | 1007.7 |
| 20260506161209 | 12 | 295 | 1.6 | 9.7 | 0.00 | 1.30 | 0.23 | 81 | 1007.7 |
| 20260506160228 | 12 | 355 | 3.2 | 14.5 | 0.00 | 1.30 | 0.23 | 81 | 1007.6 |
| 20260506155704 | 12 | 279 | 3.2 | 14.5 | 0.00 | 1.30 | 0.23 | 82 | 1007.6 |
| 20260506154704 | 12 | 271 | 3.2 | 12.9 | 0.00 | 1.30 | 0.23 | 82 | 1007.6 |
| 20260506153704 | 12 | 323 | 3.2 | 9.7 | 0.00 | 1.32 | 0.23 | 81 | 1007.6 |
| 20260506153204 | 12 | 304 | 1.6 | 9.7 | 0.00 | 1.32 | 0.23 | 80 | 1007.5 |
| 20260506152704 | 12 | 241 | 1.6 | 9.7 | 0.00 | 1.32 | 0.23 | 80 | 1007.4 |
| 20260506151704 | 12 | 350 | 1.6 | 14.5 | 0.00 | 1.32 | 0.23 | 82 | 1007.4 |
| 20260506151204 | 12 | 273 | 3.2 | 14.5 | 0.00 | 1.35 | 0.23 | 83 | 1007.2 |
| 20260506145704 | 12 | 316 | 1.6 | 11.3 | 0.00 | 1.37 | 0.23 | 84 | 1007.0 |
| 20260506145205 | 12 | 265 | 1.6 | 12.9 | 0.00 | 1.37 | 0.23 | 84 | 1007.1 |
| 20260506144704 | 12 | 313 | 3.2 | 12.9 | 0.00 | 1.37 | 0.23 | 84 | 1007.1 |
| 20260506143704 | 12 | 286 | 4.8 | 12.9 | 0.00 | 1.37 | 0.23 | 85 | 1007.1 |
| 20260506143204 | 12 | 294 | 3.2 | 9.7 | 0.00 | 1.40 | 0.23 | 84 | 1007.1 |
| 20260506142704 | 12 | 257 | 3.2 | 11.3 | 0.00 | 1.40 | 0.23 | 84 | 1007.1 |
| 20260506142204 | 12 | 244 | 3.2 | 11.3 | 0.00 | 1.40 | 0.23 | 85 | 1007.1 |
| 20260506141704 | 12 | 286 | 1.6 | 11.3 | 0.00 | 1.40 | 0.23 | 84 | 1007.1 |
| 20260506141231 | 12 | 326 | 1.6 | 6.4 | 0.00 | 1.42 | 0.23 | 85 | 1007.2 |
| 20260506140704 | 12 | 325 | 1.6 | 8.0 | 0.00 | 1.42 | 0.23 | 85 | 1007.2 |
| 20260506135204 | 12 | 263 | 1.6 | 8.0 | 0.00 | 1.45 | 0.23 | 85 | 1007.3 |
| 20260506134705 | 12 | 314 | 1.6 | 8.0 | 0.00 | 1.45 | 0.23 | 86 | 1007.3 |
| 20260506134205 | 11 | 325 | 1.6 | 6.4 | 0.00 | 1.45 | 0.23 | 86 | 1007.3 |
| 20260506133704 | 11 | 303 | 1.6 | 8.0 | 0.00 | 1.45 | 0.23 | 86 | 1007.3 |
| 20260506132704 | 11 | 277 | 3.2 | 11.3 | 0.00 | 1.45 | 0.23 | 86 | 1007.4 |
| 20260506132204 | 12 | 277 | 3.2 | 11.3 | 0.00 | 1.45 | 0.23 | 86 | 1007.3 |
| 20260506130719 | 12 | 338 | 3.2 | 11.3 | 0.00 | 1.47 | 0.23 | 86 | 1007.2 |
| 20260506130226 | 12 | 284 | 4.8 | 11.3 | 0.00 | 1.50 | 0.23 | 85 | 1007.1 |
| 20260506125704 | 12 | 273 | 3.2 | 11.3 | 0.00 | 1.50 | 0.23 | 86 | 1007.0 |
| 20260506124704 | 12 | 22 | 1.6 | 11.3 | 0.00 | 1.52 | 0.23 | 87 | 1006.9 |
| 20260506124204 | 12 | 271 | 1.6 | 9.7 | 0.00 | 1.55 | 0.23 | 86 | 1006.8 |
| 20260506123704 | 12 | 288 | 1.6 | 9.7 | 0.00 | 1.55 | 0.23 | 86 | 1006.8 |
| 20260506123204 | 12 | 312 | 1.6 | 8.0 | 0.00 | 1.55 | 0.23 | 86 | 1006.8 |
| 20260506122704 | 12 | 342 | 1.6 | 8.0 | 0.00 | 1.57 | 0.23 | 85 | 1006.8 |
| 20260506122204 | 12 | 296 | 1.6 | 6.4 | 0.00 | 1.60 | 0.23 | 86 | 1006.7 |
| 20260506121704 | 12 | 277 | 1.6 | 9.7 | 0.00 | 1.63 | 0.23 | 86 | 1006.7 |
| 20260506121204 | 12 | 315 | 1.6 | 9.7 | 0.00 | 1.65 | 0.23 | 86 | 1006.7 |
| 20260506120704 | 12 | 271 | 3.2 | 9.7 | 0.00 | 1.65 | 0.23 | 86 | 1006.6 |
| 20260506120206 | 12 | 317 | 3.2 | 9.7 | 0.00 | 1.68 | 0.23 | 86 | 1006.6 |
| 20260506115704 | 12 | 304 | 3.2 | 8.0 | 0.00 | 1.70 | 0.23 | 86 | 1006.6 |
| 20260506115204 | 12 | 319 | 3.2 | 11.3 | 0.00 | 1.70 | 0.23 | 86 | 1006.6 |
| 20260506114704 | 12 | 301 | 3.2 | 11.3 | 0.00 | 1.70 | 0.23 | 86 | 1006.6 |
| 20260506114204 | 12 | 311 | 3.2 | 8.0 | 0.00 | 1.70 | 0.23 | 86 | 1006.6 |
| 20260506113704 | 12 | 259 | 1.6 | 6.4 | 0.00 | 1.70 | 0.23 | 87 | 1006.5 |